User: anonymous   Login
Location: �perlecques
(50.8057°N, 2.1521°E)
Time: 17:58:30
(UTC+00:00)
Language:

Cosmos 2237 Rocket - Orbit

View from above orbital plane
View from above orbital plane
View from above satellite
View from above satellite

Ground track
Ground track

The orbit data is extracted from the following two-line orbital elements,

1 22566U 93016B   20184.87993949 +.00000170 +00000-0 +11245-3 0  9997
2 22566 071.0068 253.3691 0012267 246.3991 113.5844 14.14961532408516
Epoch (UTC): 02 July 2020 21:07:06
Eccentricity: 0.0012267
inclination: 71.0068°
perigee height: 833 km
apogee height: 851 km
right ascension of ascending node: 253.3691°
argument of perigee: 246.3991°
revolutions per day: 14.14961532
mean anomaly at epoch: 113.5844°
orbit number at epoch: 40851

The dashed part of the orbit path shows where the satellite is in the earth's shadow,  

DLR